Location: Unspecified
(41.1850°N, 73.2650°W)
Time: 12:51:45
(UTC+00:00)

BlueWalker 3 - Visible Passes

Search period start: 17 February 2026 00:00
Search period end: 27 February 2026 00:00
Orbit: 451 x 461 km, 53.2° (Epoch: 16 February)

Date Brightness Start Highest point End Pass type
(mag) Time Alt. Az. Time Alt. Az. Time Alt. Az.
20 Feb 5.1 10:42:32 10° SE 10:43:32 11° SE 10:44:32 10° ESE visible
22 Feb 2.6 11:05:18 10° SSW 11:08:48 52° SE 11:12:18 10° ENE visible
23 Feb 3.1 10:29:36 10° SSW 10:32:57 38° SE 10:36:19 10° ENE visible
24 Feb 3.6 09:54:47 15° S 09:57:07 28° SE 10:00:15 10° ENE visible
25 Feb 3.9 09:20:59 21° SE 09:21:18 21° SE 09:24:04 10° E visible
25 Feb 2.1 10:55:02 10° WSW 10:58:31 47° NW 11:02:02 10° NE visible
26 Feb 4.9 08:46:58 13° E 08:46:58 13° E 08:47:43 10° E visible
26 Feb 1.8 10:20:41 25° WSW 10:22:34 62° NW 10:26:09 10° NE visible
